COSMOS 2467             
1 37152U 10043A   19257.67473833  .00000004  00000-0 -43786-4 0  9998
2 37152  82.4598 168.4219 0001750  91.8447 268.2832 12.42887519409015
STRELA 3                
1 37153U 10043B   19257.71360353  .00000012  00000-0  13577-4 0  9999
2 37153  82.4607 175.3755 0008351  40.9763 319.1942 12.40734188408433
COSMOS 2468             
1 37154U 10043C   19257.73673249  .00000008  00000-0 -10603-4 0  9996
2 37154  82.4633 167.0386 0013908 294.5272  65.4354 12.43650795409227
SL-19 R/B               
1 37155U 10043D   19257.89516303 -.00000003  00000-0 -63638-4 0  9993
2 37155  82.4635  25.8811 0199182 156.0925 327.0373 12.78539092420854